^^

..:: Storico WU ::..




Lo storico viene creato da WUnderground con i dati che la stazione Meteomincio invia al loro server. L' aggiornamento viene fatto ogni 5 minuti circa, tuttavia possono esserci intervalli pił ampi a causa di errori, interruzioni di servizio o problemi nell' invio tramite FTP.


Storico stazione MeteoMincio
Giorno Sommario per Gennaio 29, 2022 Unità:  Inglese    Metrico   Entrambi
Giorno Settimana Mese Anno
  Max: Min: Media:
Temperatura: 46.4 °F 26.6 °F 33.3 °F
Dew Point: 41 °F 26.6 °F 32 °F
Umidità: 99% 77% 95%
Velocità vento: 5.6mph 0mph 2.6mph
Raffica: 6.8mph - -
Direzione- - SSW
Pressione: 30.5 in 30.3 in -
Precipitazioni: 0.01 in    
 
 
Tabulato Dati per Gennaio 29, 2022
Ora Temperatura Dew Point Pressione Direzione Velocità vento Raffica Umidità Intensità pioggia (oraria) Info solare Situazione
00:04 30.2 °F 30.2 °F 30.4 in SSW 4.3 mph 6.2 mph 98% 0 in 0.00 W/m2 unknown
00:09 30.2 °F 30.2 °F 30.4 in SSW 3.1 mph 6.2 mph 98% 0 in 0.00 W/m2 unknown
00:14 30.2 °F 30.2 °F 30.4 in SSW 3.7 mph 5 mph 98% 0 in 0.00 W/m2 unknown
00:19 30.2 °F 30.2 °F 30.4 in SW 3.7 mph 5 mph 98% 0 in 0.00 W/m2 unknown
00:24 30.2 °F 30.2 °F 30.4 in SW 1.2 mph 5 mph 98% 0 in 0.00 W/m2 unknown
00:29 30.2 °F 30.2 °F 30.4 in Calm   1.9 mph 98% 0 in 0.00 W/m2 unknown
00:34 30.2 °F 30.2 °F 30.4 in SSE 1.9 mph 3.1 mph 98% 0 in 0.00 W/m2 unknown
00:39 30.2 °F 30.2 °F 30.4 in South 3.1 mph 3.7 mph 98% 0 in 0.00 W/m2 unknown
00:44 30.2 °F 30.2 °F 30.4 in SSW 1.9 mph 3.7 mph 98% 0 in 0.00 W/m2 unknown
00:49 30.2 °F 30.2 °F 30.4 in SW 1.9 mph 3.7 mph 98% 0 in 0.00 W/m2 unknown
00:54 30.2 °F 30.2 °F 30.4 in West 2.5 mph 3.7 mph 98% 0 in 0.00 W/m2 unknown
00:59 30.2 °F 30.2 °F 30.4 in West 2.5 mph 3.7 mph 98% 0 in 0.00 W/m2 unknown
01:04 30.2 °F 30.2 °F 30.4 in WNW 1.9 mph 3.7 mph 98% 0 in 0.00 W/m2 unknown
01:09 30.2 °F 30.2 °F 30.4 in West 1.9 mph 3.7 mph 98% 0 in 0.00 W/m2 unknown
01:14 30.2 °F 30.2 °F 30.4 in WSW 3.7 mph 5 mph 98% 0 in 0.00 W/m2 unknown
01:19 30.2 °F 30.2 °F 30.4 in WSW 3.1 mph 5 mph 98% 0 in 0.00 W/m2 unknown
01:24 30.2 °F 30.2 °F 30.4 in West 3.1 mph 3.7 mph 98% 0 in 0.00 W/m2 unknown
01:29 30.2 °F 30.2 °F 30.4 in WSW 2.5 mph 3.7 mph 98% 0 in 0.00 W/m2 unknown
01:34 30.2 °F 30.2 °F 30.4 in NNW 2.5 mph 3.7 mph 98% 0 in 0.00 W/m2 unknown
01:39 30.2 °F 30.2 °F 30.4 in North 3.7 mph 5 mph 98% 0 in 0.00 W/m2 unknown
01:44 30.2 °F 30.2 °F 30.4 in NNE 3.7 mph 5 mph 98% 0 in 0.00 W/m2 unknown
01:49 30.2 °F 30.2 °F 30.4 in NNE 4.3 mph 5 mph 98% 0 in 0.00 W/m2 unknown
01:54 30.2 °F 30.2 °F 30.4 in North 2.5 mph 5 mph 98% 0 in 0.00 W/m2 unknown
01:59 30.2 °F 30.2 °F 30.4 in NNE 2.5 mph 3.7 mph 98% 0 in 0.00 W/m2 unknown
02:04 30.2 °F 30.2 °F 30.4 in NE 3.1 mph 3.7 mph 98% 0 in 0.00 W/m2 unknown
02:09 30.2 °F 30.2 °F 30.4 in NE 3.7 mph 5 mph 98% 0 in 0.00 W/m2 unknown
02:14 30.2 °F 28.4 °F 30.4 in NE 3.7 mph 5 mph 98% 0 in 0.00 W/m2 unknown
02:19 30.2 °F 28.4 °F 30.4 in NE 3.7 mph 5 mph 98% 0 in 0.00 W/m2 unknown
02:24 30.2 °F 28.4 °F 30.4 in NE 3.7 mph 5 mph 98% 0 in 0.00 W/m2 unknown
02:29 30.2 °F 28.4 °F 30.4 in NE 3.1 mph 3.7 mph 98% 0 in 0.00 W/m2 unknown
02:34 30.2 °F 28.4 °F 30.4 in NE 5 mph 6.2 mph 98% 0 in 0.00 W/m2 unknown
02:39 28.4 °F 28.4 °F 30.4 in NE 5 mph 6.2 mph 98% 0 in 0.00 W/m2 unknown
02:44 28.4 °F 28.4 °F 30.4 in NE 3.1 mph 3.7 mph 98% 0 in 0.00 W/m2 unknown
02:49 28.4 °F 28.4 °F 30.4 in NNE 3.1 mph 3.7 mph 98% 0 in 0.00 W/m2 unknown
02:54 28.4 °F 28.4 °F 30.4 in NNE 3.1 mph 3.7 mph 98% 0 in 0.00 W/m2 unknown
02:59 28.4 °F 28.4 °F 30.4 in NE 3.1 mph 3.7 mph 98% 0 in 0.00 W/m2 unknown
03:04 28.4 °F 28.4 °F 30.4 in NE 3.7 mph 5 mph 98% 0 in 0.00 W/m2 unknown
03:09 28.4 °F 28.4 °F 30.4 in NE 3.1 mph 5 mph 98% 0 in 0.00 W/m2 unknown
03:14 28.4 °F 28.4 °F 30.4 in ENE 3.7 mph 5 mph 98% 0 in 0.00 W/m2 unknown
03:19 28.4 °F 28.4 °F 30.4 in East 2.5 mph 3.7 mph 98% 0 in 0.00 W/m2 unknown
03:24 28.4 °F 28.4 °F 30.4 in Calm     98% 0 in 0.00 W/m2 unknown
03:29 28.4 °F 28.4 °F 30.4 in West 1.9 mph 3.7 mph 98% 0 in 0.00 W/m2 unknown
03:34 28.4 °F 28.4 °F 30.4 in WSW 3.1 mph 3.7 mph 98% 0 in 0.00 W/m2 unknown
03:39 28.4 °F 28.4 °F 30.4 in WSW 1.9 mph 3.7 mph 98% 0 in 0.00 W/m2 unknown
03:44 28.4 °F 26.6 °F 30.4 in West 2.5 mph 3.7 mph 98% 0 in 0.00 W/m2 unknown
03:49 28.4 °F 26.6 °F 30.4 in West 1.9 mph 3.7 mph 98% 0 in 0.00 W/m2 unknown
03:54 28.4 °F 26.6 °F 30.4 in West 1.9 mph 3.1 mph 98% 0 in 0.00 W/m2 unknown
03:59 28.4 °F 26.6 °F 30.4 in West 0.6 mph 1.2 mph 98% 0 in 0.00 W/m2 unknown
04:04 26.6 °F 26.6 °F 30.4 in NW 1.2 mph 1.9 mph 98% 0 in 0.00 W/m2 unknown
04:09 26.6 °F 26.6 °F 30.4 in NNW 1.2 mph 2.5 mph 98% 0 in 0.00 W/m2 unknown
04:14 26.6 °F 26.6 °F 30.4 in Calm   1.9 mph 98% 0 in 0.00 W/m2 unknown
04:19 26.6 °F 26.6 °F 30.4 in SSW 1.2 mph 3.1 mph 98% 0 in 0.00 W/m2 unknown
04:24 26.6 °F 26.6 °F 30.4 in SSW 2.5 mph 3.7 mph 98% 0 in 0.00 W/m2 unknown
04:29 26.6 °F 26.6 °F 30.4 in SW 3.7 mph 5 mph 98% 0 in 0.00 W/m2 unknown
04:34 26.6 °F 26.6 °F 30.4 in SSW 2.5 mph 5 mph 98% 0 in 0.00 W/m2 unknown
04:39 26.6 °F 26.6 °F 30.4 in SSW 3.7 mph 5 mph 98% 0 in 0.00 W/m2 unknown
04:44 26.6 °F 26.6 °F 30.4 in SSW 3.1 mph 5 mph 98% 0 in 0.00 W/m2 unknown
04:49 26.6 °F 26.6 °F 30.4 in SW 3.7 mph 3.7 mph 98% 0 in 0.00 W/m2 unknown
04:54 26.6 °F 26.6 °F 30.4 in SW 3.1 mph 3.7 mph 98% 0 in 0.00 W/m2 unknown
04:59 26.6 °F 26.6 °F 30.4 in SW 3.1 mph 3.7 mph 98% 0 in 0.00 W/m2 unknown
05:04 26.6 °F 26.6 °F 30.4 in WSW 2.5 mph 3.7 mph 98% 0 in 0.00 W/m2 unknown
05:09 26.6 °F 26.6 °F 30.4 in SW 3.1 mph 3.7 mph 98% 0 in 0.00 W/m2 unknown
05:14 26.6 °F 26.6 °F 30.4 in WSW 3.7 mph 5 mph 98% 0 in 0.00 W/m2 unknown
05:19 26.6 °F 26.6 °F 30.4 in WSW 4.3 mph 5 mph 98% 0 in 0.00 W/m2 unknown
05:24 26.6 °F 26.6 °F 30.4 in WSW 3.7 mph 5 mph 98% 0 in 0.00 W/m2 unknown
05:29 26.6 °F 26.6 °F 30.4 in WSW 3.1 mph 5 mph 98% 0 in 0.00 W/m2 unknown
05:34 26.6 °F 26.6 °F 30.4 in WSW 3.7 mph 5 mph 98% 0 in 0.00 W/m2 unknown
05:39 26.6 °F 26.6 °F 30.4 in SW 3.7 mph 5 mph 98% 0 in 0.00 W/m2 unknown
05:44 26.6 °F 26.6 °F 30.4 in WSW 4.3 mph 5 mph 98% 0 in 0.00 W/m2 unknown
05:49 26.6 °F 26.6 °F 30.4 in WSW 5 mph 5 mph 98% 0 in 0.00 W/m2 unknown
05:54 26.6 °F 26.6 °F 30.4 in SW 4.3 mph 6.2 mph 98% 0 in 0.00 W/m2 unknown
05:59 26.6 °F 26.6 °F 30.4 in SSW 4.3 mph 6.2 mph 98% 0 in 0.00 W/m2 unknown
06:04 26.6 °F 26.6 °F 30.4 in SSW 3.7 mph 5 mph 98% 0 in 0.00 W/m2 unknown
06:09 28.4 °F 26.6 °F 30.4 in SW 3.7 mph 5 mph 98% 0 in 0.00 W/m2 unknown
06:14 28.4 °F 26.6 °F 30.4 in SW 3.1 mph 5 mph 98% 0 in 0.00 W/m2 unknown
06:19 28.4 °F 26.6 °F 30.4 in SW 3.1 mph 3.7 mph 98% 0 in 0.00 W/m2 unknown
06:24 28.4 °F 26.6 °F 30.4 in SSW 2.5 mph 3.7 mph 98% 0 in 0.00 W/m2 unknown
06:29 28.4 °F 26.6 °F 30.4 in SSW 2.5 mph 3.7 mph 98% 0 in 0.00 W/m2 unknown
06:34 28.4 °F 26.6 °F 30.4 in SSW 3.1 mph 3.7 mph 98% 0 in 0.00 W/m2 unknown
06:39 28.4 °F 26.6 °F 30.4 in WSW 1.9 mph 3.1 mph 98% 0 in 0.00 W/m2 unknown
06:44 28.4 °F 26.6 °F 30.4 in West 2.5 mph 3.7 mph 98% 0 in 0.00 W/m2 unknown
06:49 28.4 °F 26.6 °F 30.4 in West 1.9 mph 3.1 mph 98% 0 in 0.00 W/m2 unknown
06:54 28.4 °F 26.6 °F 30.4 in West 1.2 mph 2.5 mph 98% 0 in 0.00 W/m2 unknown
06:59 28.4 °F 26.6 °F 30.4 in SW 1.9 mph 2.5 mph 98% 0 in 0.00 W/m2 unknown
07:04 28.4 °F 26.6 °F 30.4 in SSW 3.1 mph 3.7 mph 98% 0 in 0.00 W/m2 unknown
07:09 28.4 °F 26.6 °F 30.4 in WSW 2.5 mph 3.7 mph 98% 0 in 0.00 W/m2 unknown
07:14 28.4 °F 26.6 °F 30.4 in WSW 3.1 mph 3.7 mph 98% 0 in 0.00 W/m2 unknown
07:19 28.4 °F 26.6 °F 30.4 in West 2.5 mph 3.7 mph 98% 0 in 0.00 W/m2 unknown
07:24 28.4 °F 26.6 °F 30.4 in WSW 2.5 mph 3.7 mph 98% 0 in 0.00 W/m2 unknown
07:29 28.4 °F 26.6 °F 30.4 in WSW 1.9 mph 3.7 mph 98% 0 in 0.00 W/m2 unknown
07:34 28.4 °F 26.6 °F 30.5 in WSW 1.2 mph 3.1 mph 98% 0 in 0.00 W/m2 unknown
07:39 28.4 °F 26.6 °F 30.5 in West 1.9 mph 3.7 mph 98% 0 in 0.00 W/m2 unknown
07:44 28.4 °F 26.6 °F 30.5 in West 1.9 mph 3.1 mph 98% 0 in 0.00 W/m2 unknown
07:49 28.4 °F 26.6 °F 30.5 in WSW 1.9 mph 3.7 mph 98% 0 in 0.00 W/m2 unknown
07:54 28.4 °F 26.6 °F 30.5 in SW 1.9 mph 3.7 mph 98% 0 in 5.00 W/m2 unknown
07:59 28.4 °F 26.6 °F 30.4 in WSW 1.9 mph 3.1 mph 98% 0 in 11.00 W/m2 unknown
08:04 28.4 °F 26.6 °F 30.5 in West 2.5 mph 3.7 mph 98% 0 in 12.00 W/m2 unknown
08:09 28.4 °F 26.6 °F 30.5 in West 3.1 mph 3.7 mph 98% 0 in 16.00 W/m2 unknown
08:14 28.4 °F 26.6 °F 30.5 in WNW 1.9 mph 3.7 mph 98% 0 in 18.00 W/m2 unknown
08:19 28.4 °F 26.6 °F 30.5 in WNW 1.9 mph 3.7 mph 98% 0 in 23.00 W/m2 unknown
08:24 28.4 °F 26.6 °F 30.5 in WNW 3.1 mph 3.7 mph 98% 0 in 32.00 W/m2 unknown
08:29 28.4 °F 26.6 °F 30.5 in WNW 3.1 mph 3.7 mph 98% 0 in 33.00 W/m2 unknown
08:34 26.6 °F 26.6 °F 30.5 in WNW 3.1 mph 3.7 mph 98% 0 in 39.00 W/m2 unknown
08:39 26.6 °F 26.6 °F 30.5 in NW 2.5 mph 3.7 mph 98% 0 in 42.00 W/m2 unknown
08:44 26.6 °F 26.6 °F 30.5 in WNW 1.9 mph 3.7 mph 98% 0 in 49.00 W/m2 unknown
08:49 26.6 °F 26.6 °F 30.5 in NNW 2.5 mph 3.7 mph 98% 0 in 51.00 W/m2 unknown
08:54 26.6 °F 26.6 °F 30.5 in NNW 3.1 mph 3.7 mph 98% 0 in 60.00 W/m2 unknown
08:59 26.6 °F 26.6 °F 30.5 in NNW 3.1 mph 3.7 mph 98% 0 in 67.00 W/m2 unknown
09:04 28.4 °F 26.6 °F 30.5 in North 3.1 mph 3.7 mph 98% 0 in 77.00 W/m2 unknown
09:09 28.4 °F 26.6 °F 30.5 in North 3.1 mph 3.7 mph 98% 0 in 81.00 W/m2 unknown
09:14 28.4 °F 26.6 °F 30.5 in North 3.1 mph 3.7 mph 98% 0 in 90.00 W/m2 unknown
09:19 28.4 °F 26.6 °F 30.5 in NNE 1.9 mph 3.7 mph 98% 0 in 111.00 W/m2 unknown
09:24 28.4 °F 26.6 °F 30.5 in NNE 1.2 mph 3.1 mph 98% 0 in 114.00 W/m2 unknown
09:29 28.4 °F 26.6 °F 30.5 in NNE 2.5 mph 3.7 mph 98% 0 in 114.00 W/m2 unknown
09:34 28.4 °F 28.4 °F 30.5 in North 1.2 mph 3.1 mph 98% 0 in 111.00 W/m2 unknown
09:39 28.4 °F 28.4 °F 30.5 in North 1.2 mph 2.5 mph 98% 0 in 100.00 W/m2 unknown
09:44 28.4 °F 26.6 °F 30.5 in Calm   1.9 mph 98% 0 in 134.00 W/m2 unknown
09:49 28.4 °F 26.6 °F 30.5 in Calm     98% 0 in 134.00 W/m2 unknown
09:54 28.4 °F 28.4 °F 30.5 in West 2.5 mph 3.7 mph 98% 0 in 123.00 W/m2 unknown
09:59 28.4 °F 28.4 °F 30.5 in WSW 3.1 mph 3.7 mph 98% 0 in 121.00 W/m2 unknown
10:04 28.4 °F 26.6 °F 30.5 in West 3.1 mph 3.7 mph 98% 0 in 134.00 W/m2 unknown
10:09 28.4 °F 26.6 °F 30.5 in West 2.5 mph 3.7 mph 98% 0 in 148.00 W/m2 unknown
10:14 28.4 °F 28.4 °F 30.5 in West 3.1 mph 3.7 mph 98% 0 in 151.00 W/m2 unknown
10:19 28.4 °F 28.4 °F 30.5 in West 2.5 mph 3.7 mph 98% 0 in 156.00 W/m2 unknown
10:24 28.4 °F 28.4 °F 30.5 in West 3.1 mph 3.7 mph 98% 0 in 183.00 W/m2 unknown
10:29 28.4 °F 28.4 °F 30.5 in WSW 1.9 mph 3.7 mph 98% 0 in 193.00 W/m2 unknown
10:34 28.4 °F 28.4 °F 30.5 in WSW 1.9 mph 3.7 mph 98% 0 in 195.00 W/m2 unknown
10:39 28.4 °F 28.4 °F 30.5 in SW 1.9 mph 3.7 mph 98% 0 in 220.00 W/m2 unknown
10:44 30.2 °F 28.4 °F 30.5 in SW 1.9 mph 3.7 mph 98% 0 in 264.00 W/m2 unknown
10:49 30.2 °F 28.4 °F 30.5 in WSW 1.2 mph 3.1 mph 98% 0 in 297.00 W/m2 unknown
10:54 30.2 °F 30.2 °F 30.5 in West 1.9 mph 3.1 mph 99% 0 in 325.00 W/m2 unknown
10:59 30.2 °F 30.2 °F 30.5 in West 2.5 mph 3.7 mph 99% 0.01 in 258.00 W/m2 unknown
11:04 32 °F 30.2 °F 30.5 in WSW 2.5 mph 3.7 mph 99% 0.01 in 320.00 W/m2 unknown
11:09 32 °F 32 °F 30.5 in WSW 3.7 mph 5 mph 99% 0.01 in 339.00 W/m2 unknown
11:14 32 °F 32 °F 30.5 in WSW 3.7 mph 5 mph 99% 0.01 in 339.00 W/m2 unknown
11:19 32 °F 32 °F 30.5 in WSW 2.5 mph 3.7 mph 99% 0.01 in 241.00 W/m2 unknown
11:24 32 °F 32 °F 30.5 in West 3.1 mph 3.7 mph 99% 0.01 in 213.00 W/m2 unknown
11:29 32 °F 32 °F 30.5 in West 1.9 mph 3.7 mph 99% 0.01 in 239.00 W/m2 unknown
11:34 32 °F 32 °F 30.5 in WSW 1.9 mph 3.7 mph 99% 0.01 in 394.00 W/m2 unknown
11:39 33.8 °F 33.8 °F 30.5 in WSW 0.6 mph 2.5 mph 99% 0.01 in 399.00 W/m2 unknown
11:44 33.8 °F 33.8 °F 30.5 in SE 1.2 mph 2.5 mph 99% 0.01 in 388.00 W/m2 unknown
11:49 33.8 °F 33.8 °F 30.5 in ESE 1.2 mph 2.5 mph 99% 0.01 in 390.00 W/m2 unknown
11:54 33.8 °F 33.8 °F 30.4 in ESE 1.2 mph 2.5 mph 99% 0.01 in 394.00 W/m2 unknown
11:59 35.6 °F 33.8 °F 30.4 in ESE 1.2 mph 1.9 mph 97% 0 in 387.00 W/m2 unknown
12:04 35.6 °F 35.6 °F 30.4 in South 0.6 mph 1.2 mph 96% 0 in 394.00 W/m2 unknown
12:09 37.4 °F 35.6 °F 30.4 in SW 1.9 mph 2.5 mph 95% 0 in 397.00 W/m2 unknown
12:14 37.4 °F 35.6 °F 30.4 in SW 2.5 mph 3.7 mph 94% 0 in 401.00 W/m2 unknown
12:19 37.4 °F 35.6 °F 30.4 in WSW 1.9 mph 3.7 mph 92% 0 in 403.00 W/m2 unknown
12:24 37.4 °F 35.6 °F 30.4 in SW 2.5 mph 3.7 mph 92% 0 in 401.00 W/m2 unknown
12:29 39.2 °F 35.6 °F 30.4 in SW 3.1 mph 3.7 mph 91% 0 in 404.00 W/m2 unknown
12:34 39.2 °F 37.4 °F 30.4 in SSW 3.1 mph 3.7 mph 92% 0 in 406.00 W/m2 unknown
12:39 39.2 °F 37.4 °F 30.4 in SW 2.5 mph 3.7 mph 91% 0 in 413.00 W/m2 unknown
12:44 39.2 °F 37.4 °F 30.4 in SW 3.7 mph 3.7 mph 90% 0 in 410.00 W/m2 unknown
12:49 39.2 °F 37.4 °F 30.4 in SSW 3.1 mph 5 mph 90% 0 in 411.00 W/m2 unknown
12:54 41 °F 37.4 °F 30.4 in SW 3.7 mph 5 mph 90% 0 in 411.00 W/m2 unknown
12:59 41 °F 37.4 °F 30.4 in SW 3.7 mph 5 mph 89% 0 in 410.00 W/m2 unknown
13:04 41 °F 37.4 °F 30.4 in SW 3.1 mph 5 mph 89% 0 in 411.00 W/m2 unknown
13:09 41 °F 37.4 °F 30.4 in West 3.1 mph 5 mph 89% 0 in 413.00 W/m2 unknown
13:14 41 °F 37.4 °F 30.4 in WSW 3.1 mph 5 mph 88% 0 in 410.00 W/m2 unknown
13:19 41 °F 37.4 °F 30.4 in South 1.9 mph 3.7 mph 88% 0 in 406.00 W/m2 unknown
13:24 41 °F 39.2 °F 30.4 in SW 2.5 mph 3.7 mph 89% 0 in 403.00 W/m2 unknown
13:29 42.8 °F 39.2 °F 30.4 in SSW 3.1 mph 5 mph 89% 0 in 392.00 W/m2 unknown
13:34 42.8 °F 39.2 °F 30.4 in SW 3.1 mph 5 mph 88% 0 in 396.00 W/m2 unknown
13:39 42.8 °F 39.2 °F 30.4 in WSW 2.5 mph 3.7 mph 88% 0 in 397.00 W/m2 unknown
13:44 42.8 °F 39.2 °F 30.4 in SW 1.9 mph 3.7 mph 88% 0 in 394.00 W/m2 unknown
13:49 42.8 °F 39.2 °F 30.4 in WSW 1.9 mph 3.7 mph 87% 0 in 392.00 W/m2 unknown
13:54 44.6 °F 41 °F 30.4 in West 2.5 mph 3.7 mph 86% 0 in 387.00 W/m2 unknown
13:59 44.6 °F 39.2 °F 30.4 in WSW 1.9 mph 3.1 mph 85% 0 in 383.00 W/m2 unknown
14:04 44.6 °F 39.2 °F 30.4 in West 1.9 mph 3.7 mph 84% 0 in 374.00 W/m2 unknown
14:09 44.6 °F 41 °F 30.4 in WNW 1.9 mph 3.7 mph 84% 0 in 374.00 W/m2 unknown
14:14 46.4 °F 41 °F 30.4 in NW 1.9 mph 3.1 mph 83% 0 in 373.00 W/m2 unknown
14:19 46.4 °F 39.2 °F 30.4 in NW 1.2 mph 2.5 mph 81% 0 in 360.00 W/m2 unknown
14:24 46.4 °F 39.2 °F 30.4 in WSW 2.5 mph 3.7 mph 80% 0 in 348.00 W/m2 unknown
14:29 46.4 °F 39.2 °F 30.4 in West 2.5 mph 3.7 mph 79% 0 in 341.00 W/m2 unknown
14:34 46.4 °F 39.2 °F 30.4 in West 1.2 mph 3.1 mph 79% 0 in 338.00 W/m2 unknown
14:39 46.4 °F 39.2 °F 30.4 in West 1.2 mph 2.5 mph 79% 0 in 327.00 W/m2 unknown
14:44 46.4 °F 39.2 °F 30.4 in West 2.5 mph 3.7 mph 79% 0 in 320.00 W/m2 unknown
14:49 46.4 °F 39.2 °F 30.4 in WNW 2.5 mph 3.7 mph 77% 0 in 308.00 W/m2 unknown
14:54 46.4 °F 39.2 °F 30.4 in WNW 1.9 mph 3.7 mph 77% 0 in 301.00 W/m2 unknown
14:59 46.4 °F 39.2 °F 30.4 in WSW 2.5 mph 3.7 mph 78% 0 in 287.00 W/m2 unknown
15:04 46.4 °F 41 °F 30.4 in West 3.1 mph 5 mph 79% 0 in 276.00 W/m2 unknown
15:09 46.4 °F 41 °F 30.4 in SSW 3.7 mph 5 mph 84% 0 in 267.00 W/m2 unknown
15:14 46.4 °F 41 °F 30.4 in SSW 5 mph 6.8 mph 85% 0 in 260.00 W/m2 unknown
15:19 44.6 °F 41 °F 30.4 in SSW 5 mph 6.8 mph 86% 0 in 243.00 W/m2 unknown
15:24 44.6 °F 41 °F 30.4 in SSW 5.6 mph 6.8 mph 86% 0 in 232.00 W/m2 unknown
15:29 44.6 °F 41 °F 30.4 in SSW 5 mph 6.8 mph 87% 0 in 227.00 W/m2 unknown
15:34 44.6 °F 41 °F 30.4 in SSW 4.3 mph 5 mph 88% 0 in 211.00 W/m2 unknown
15:39 44.6 °F 41 °F 30.4 in South 3.1 mph 5 mph 88% 0 in 200.00 W/m2 unknown
15:44 44.6 °F 41 °F 30.3 in South 3.1 mph 3.7 mph 87% 0 in 193.00 W/m2 unknown
15:49 44.6 °F 41 °F 30.3 in SE 3.1 mph 3.7 mph 87% 0 in 178.00 W/m2 unknown
15:54 44.6 °F 41 °F 30.3 in SE 3.1 mph 3.7 mph 87% 0 in 171.00 W/m2 unknown
15:59 44.6 °F 41 °F 30.3 in South 3.7 mph 6.2 mph 87% 0 in 153.00 W/m2 unknown
16:04 44.6 °F 41 °F 30.3 in South 4.3 mph 6.8 mph 87% 0 in 134.00 W/m2 unknown
16:09 42.8 °F 39.2 °F 30.3 in South 5.6 mph 6.8 mph 88% 0 in 123.00 W/m2 unknown
16:14 42.8 °F 39.2 °F 30.3 in South 5 mph 6.8 mph 89% 0 in 113.00 W/m2 unknown
16:19 42.8 °F 39.2 °F 30.3 in SSW 2.5 mph 6.2 mph 89% 0 in 102.00 W/m2 unknown
16:24 42.8 °F 39.2 °F 30.3 in SSW 3.7 mph 5 mph 88% 0 in 72.00 W/m2 unknown
16:29 42.8 °F 39.2 °F 30.3 in SSW 3.7 mph 5 mph 88% 0 in 39.00 W/m2 unknown
16:34 42.8 °F 39.2 °F 30.3 in SSW 1.9 mph 3.7 mph 88% 0 in 39.00 W/m2 unknown
16:39 42.8 °F 39.2 °F 30.3 in SW 2.5 mph 3.7 mph 88% 0 in 35.00 W/m2 unknown
16:44 42.8 °F 39.2 °F 30.3 in SW 1.2 mph 3.7 mph 88% 0 in 32.00 W/m2 unknown
16:49 42.8 °F 39.2 °F 30.3 in SSW 1.2 mph 2.5 mph 88% 0 in 26.00 W/m2 unknown
16:54 42.8 °F 39.2 °F 30.3 in SW 1.2 mph 2.5 mph 88% 0 in 25.00 W/m2 unknown
16:59 42.8 °F 39.2 °F 30.3 in Calm   1.9 mph 89% 0 in 21.00 W/m2 unknown
17:04 42.8 °F 39.2 °F 30.3 in Calm     89% 0 in 18.00 W/m2 unknown
17:09 41 °F 39.2 °F 30.3 in SSW 5 mph 6.2 mph 90% 0 in 12.00 W/m2 unknown
17:14 41 °F 37.4 °F 30.3 in SSW 5 mph 6.2 mph 92% 0 in 11.00 W/m2 unknown
17:19 39.2 °F 37.4 °F 30.3 in SSW 4.3 mph 6.2 mph 93% 0 in 7.00 W/m2 unknown
17:24 39.2 °F 37.4 °F 30.3 in SSW 4.3 mph 6.2 mph 94% 0 in 0.00 W/m2 unknown
17:29 37.4 °F 35.6 °F 30.3 in SW 3.1 mph 6.2 mph 95% 0 in 0.00 W/m2 unknown
17:34 37.4 °F 35.6 °F 30.3 in WSW 3.1 mph 3.7 mph 96% 0 in 0.00 W/m2 unknown
17:39 37.4 °F 35.6 °F 30.3 in WSW 3.1 mph 3.7 mph 96% 0 in 0.00 W/m2 unknown
17:44 37.4 °F 35.6 °F 30.3 in SW 3.7 mph 4.3 mph 96% 0 in 0.00 W/m2 unknown
17:49 35.6 °F 35.6 °F 30.3 in SW 3.1 mph 5 mph 97% 0 in 0.00 W/m2 unknown
17:54 35.6 °F 35.6 °F 30.3 in WSW 3.1 mph 3.7 mph 97% 0 in 0.00 W/m2 unknown
17:59 35.6 °F 35.6 °F 30.3 in WSW 3.7 mph 3.7 mph 97% 0 in 0.00 W/m2 unknown
18:04 35.6 °F 35.6 °F 30.3 in WSW 3.7 mph 3.7 mph 97% 0 in 0.00 W/m2 unknown
18:09 35.6 °F 35.6 °F 30.3 in WSW 3.1 mph 3.7 mph 97% 0 in 0.00 W/m2 unknown
18:14 35.6 °F 35.6 °F 30.3 in WSW 1.9 mph 3.7 mph 97% 0 in 0.00 W/m2 unknown
18:19 35.6 °F 33.8 °F 30.3 in WSW 3.7 mph 5 mph 97% 0 in 0.00 W/m2 unknown
18:24 35.6 °F 33.8 °F 30.3 in WSW 3.1 mph 5 mph 97% 0 in 0.00 W/m2 unknown
18:29 35.6 °F 33.8 °F 30.3 in West 3.7 mph 5 mph 97% 0 in 0.00 W/m2 unknown
18:34 33.8 °F 33.8 °F 30.3 in West 2.5 mph 5 mph 97% 0 in 0.00 W/m2 unknown
18:39 33.8 °F 33.8 °F 30.3 in West 1.9 mph 3.7 mph 97% 0 in 0.00 W/m2 unknown
18:44 33.8 °F 33.8 °F 30.3 in WSW 2.5 mph 3.7 mph 98% 0 in 0.00 W/m2 unknown
18:49 33.8 °F 33.8 °F 30.3 in West 3.1 mph 3.7 mph 98% 0 in 0.00 W/m2 unknown
18:54 33.8 °F 33.8 °F 30.3 in SSW 2.5 mph 3.7 mph 98% 0 in 0.00 W/m2 unknown
18:59 33.8 °F 33.8 °F 30.3 in WSW 2.5 mph 3.7 mph 98% 0 in 0.00 W/m2 unknown
19:04 33.8 °F 33.8 °F 30.3 in West 2.5 mph 3.7 mph 98% 0 in 0.00 W/m2 unknown
19:09 33.8 °F 33.8 °F 30.3 in West 1.2 mph 2.5 mph 98% 0 in 0.00 W/m2 unknown
19:14 33.8 °F 33.8 °F 30.3 in West 1.2 mph 2.5 mph 98% 0 in 0.00 W/m2 unknown
19:19 33.8 °F 33.8 °F 30.3 in Calm   1.9 mph 98% 0 in 0.00 W/m2 unknown
19:24 33.8 °F 33.8 °F 30.3 in Calm     98% 0 in 0.00 W/m2 unknown
19:29 33.8 °F 33.8 °F 30.3 in Calm     98% 0 in 0.00 W/m2 unknown
19:34 33.8 °F 33.8 °F 30.3 in West 0.6 mph 1.9 mph 98% 0 in 0.00 W/m2 unknown
19:39 33.8 °F 33.8 °F 30.3 in NNW 4.3 mph 5 mph 98% 0 in 0.00 W/m2 unknown
19:44 33.8 °F 33.8 °F 30.3 in East 1.9 mph 5 mph 98% 0 in 0.00 W/m2 unknown
19:49 33.8 °F 32 °F 30.3 in East 1.2 mph 2.5 mph 98% 0 in 0.00 W/m2 unknown
19:54 33.8 °F 32 °F 30.3 in East 1.2 mph 2.5 mph 98% 0 in 0.00 W/m2 unknown
19:59 32 °F 32 °F 30.3 in East 1.2 mph 2.5 mph 98% 0 in 0.00 W/m2 unknown
20:04 32 °F 32 °F 30.3 in East 1.9 mph 2.5 mph 98% 0 in 0.00 W/m2 unknown
20:09 32 °F 32 °F 30.3 in ENE 1.9 mph 2.5 mph 98% 0 in 0.00 W/m2 unknown
20:14 32 °F 32 °F 30.3 in NE 1.9 mph 2.5 mph 98% 0 in 0.00 W/m2 unknown
20:19 33.8 °F 32 °F 30.3 in North 1.9 mph 2.5 mph 98% 0 in 0.00 W/m2 unknown
20:24 33.8 °F 32 °F 30.3 in North 1.2 mph 2.5 mph 98% 0 in 0.00 W/m2 unknown
20:29 33.8 °F 32 °F 30.3 in North 1.2 mph 2.5 mph 98% 0 in 0.00 W/m2 unknown
20:34 33.8 °F 33.8 °F 30.3 in NE 1.9 mph 2.5 mph 98% 0 in 0.00 W/m2 unknown
20:39 33.8 °F 33.8 °F 30.3 in ESE 1.9 mph 2.5 mph 98% 0 in 0.00 W/m2 unknown
20:44 32 °F 32 °F 30.3 in Calm   1.9 mph 98% 0 in 0.00 W/m2 unknown
20:49 32 °F 32 °F 30.3 in Calm     98% 0 in 0.00 W/m2 unknown
20:54 32 °F 32 °F 30.3 in SSE 1.9 mph 2.5 mph 98% 0 in 0.00 W/m2 unknown
20:59 32 °F 32 °F 30.3 in West 3.1 mph 3.7 mph 98% 0 in 0.00 W/m2 unknown
21:04 32 °F 32 °F 30.3 in WSW 3.1 mph 3.7 mph 98% 0 in 0.00 W/m2 unknown
21:09 32 °F 32 °F 30.3 in WSW 2.5 mph 3.7 mph 98% 0 in 0.00 W/m2 unknown
21:14 32 °F 32 °F 30.3 in WSW 1.9 mph 3.7 mph 98% 0 in 0.00 W/m2 unknown
21:19 32 °F 32 °F 30.3 in WSW 1.9 mph 2.5 mph 98% 0 in 0.00 W/m2 unknown
21:24 32 °F 32 °F 30.3 in WSW 1.9 mph 3.1 mph 98% 0 in 0.00 W/m2 unknown
21:29 32 °F 32 °F 30.3 in WSW 2.5 mph 3.7 mph 98% 0 in 0.00 W/m2 unknown
21:34 32 °F 32 °F 30.3 in West 1.9 mph 3.7 mph 98% 0 in 0.00 W/m2 unknown
21:39 32 °F 32 °F 30.3 in West 2.5 mph 3.7 mph 98% 0 in 0.00 W/m2 unknown
21:44 32 °F 32 °F 30.3 in West 3.1 mph 3.7 mph 98% 0 in 0.00 W/m2 unknown
21:49 32 °F 32 °F 30.3 in West 3.1 mph 3.7 mph 97% 0 in 0.00 W/m2 unknown
21:54 33.8 °F 32 °F 30.3 in West 1.9 mph 3.7 mph 98% 0 in 0.00 W/m2 unknown
21:59 33.8 °F 32 °F 30.3 in West 1.9 mph 3.7 mph 98% 0 in 0.00 W/m2 unknown
22:04 33.8 °F 32 °F 30.3 in West 1.2 mph 3.1 mph 98% 0 in 0.00 W/m2 unknown
22:09 33.8 °F 32 °F 30.3 in SSW 2.5 mph 3.7 mph 97% 0 in 0.00 W/m2 unknown
22:14 32 °F 32 °F 30.3 in SSW 2.5 mph 3.7 mph 97% 0 in 0.00 W/m2 unknown
22:19 32 °F 32 °F 30.3 in South 2.5 mph 3.7 mph 97% 0 in 0.00 W/m2 unknown
22:24 32 °F 32 °F 30.3 in SSW 1.2 mph 3.1 mph 97% 0 in 0.00 W/m2 unknown
22:29 32 °F 32 °F 30.3 in SSW 1.2 mph 2.5 mph 97% 0 in 0.00 W/m2 unknown
22:34 33.8 °F 32 °F 30.3 in Calm   1.9 mph 97% 0 in 0.00 W/m2 unknown
22:39 33.8 °F 32 °F 30.3 in WSW 2.5 mph 3.7 mph 97% 0 in 0.00 W/m2 unknown
22:44 33.8 °F 32 °F 30.3 in WSW 3.1 mph 3.7 mph 97% 0 in 0.00 W/m2 unknown
22:49 32 °F 32 °F 30.3 in West 2.5 mph 3.7 mph 97% 0 in 0.00 W/m2 unknown
22:54 33.8 °F 32 °F 30.3 in West 1.9 mph 3.7 mph 97% 0 in 0.00 W/m2 unknown
22:59 33.8 °F 32 °F 30.3 in West 1.9 mph 3.7 mph 97% 0 in 0.00 W/m2 unknown
23:04 33.8 °F 32 °F 30.3 in West 3.1 mph 3.7 mph 97% 0 in 0.00 W/m2 unknown
23:09 33.8 °F 32 °F 30.3 in West 3.7 mph 5 mph 96% 0 in 0.00 W/m2 unknown
23:14 33.8 °F 32 °F 30.3 in WSW 3.1 mph 5 mph 96% 0 in 0.00 W/m2 unknown
23:19 33.8 °F 32 °F 30.3 in SW 3.1 mph 3.7 mph 97% 0 in 0.00 W/m2 unknown
23:24 33.8 °F 32 °F 30.3 in South 3.7 mph 5 mph 97% 0 in 0.00 W/m2 unknown
23:29 33.8 °F 32 °F 30.3 in South 3.1 mph 5 mph 96% 0 in 0.00 W/m2 unknown
23:34 33.8 °F 33.8 °F 30.3 in SSW 3.7 mph 5 mph 97% 0 in 0.00 W/m2 unknown
23:39 33.8 °F 33.8 °F 30.3 in SSW 3.1 mph 5 mph 96% 0 in 0.00 W/m2 unknown
23:44 33.8 °F 33.8 °F 30.3 in SW 4.3 mph 6.2 mph 96% 0 in 0.00 W/m2 unknown
23:49 35.6 °F 33.8 °F 30.3 in SW 3.7 mph 6.2 mph 96% 0 in 0.00 W/m2 unknown
23:54 35.6 °F 33.8 °F 30.3 in SW 3.7 mph 5 mph 96% 0 in 0.00 W/m2 unknown
23:59 35.6 °F 33.8 °F 30.3 in WSW 3.1 mph 5 mph 95% 0 in 0.00 W/m2 unknown
Stazione Meteorologica MeteoMincio Rivalta s/M (MN)
Con i complimenti di Weather Underground - 4 mb



METEO PILLOLE
La più ampia escursione termica nell'arco di 24 ore negli USA
Browning - Montana
Tra il 23 e il 24 gennaio 1916 la temperatura scese da +6.6°c a -48.9°C.
Share

Non seguire questo link o sarai bannato dal sito!